#timestamp,LO_Frequency,Hit,StdDev 
1638846015.6,286047000.8,N
1638846035.5,286046998.6,N
1638846055.3,286047001.1,N
1638846075.2,286047000.2,N
1638846095.9,286047002.7,N
1638846115.7,286047000.9,N
1638846135.6,286047000.7,N
1638846155.4,286046998.1,N
1638846175.2,286047000.9,N
1638846195.1,286046998.1,N
1638846196.0,286046998.1,N
1638846215.8,286047001.0,N
1638846235.7,286047001.1,N
1638846255.5,286047000.9,N
1638846275.3,286047000.9,N
1638846295.2,286046999.9,N
1638846315.0,286046999.7,N
1638846315.9,286046999.7,N
1638846335.8,286047002.7,N
1638846355.6,286047002.8,N
1638846375.4,286047002.8,N
1638846395.3,286047002.8,N
1638846415.1,286046999.7,N
1638846435.8,286047002.7,N
1638846455.7,286047001.5,N
1638846475.5,286047001.9,N
1638846495.4,286047003.8,N
1638846515.2,286047004.0,N
1638846535.0,286047001.5,N
1638846535.9,286047001.5,N
1638846555.8,286047002.1,N
1638846575.6,286047000.5,N
1638846595.5,286046998.1,N
1638846615.3,286046998.6,N
1638846635.1,286047000.4,N
1638846655.9,286047000.0,N
1638846675.7,286047000.0,N
1638846695.6,286047002.3,N
1638846715.4,286047002.5,N
1638846735.2,286047000.1,N
1638846755.1,286047000.5,N
1638846756.0,286047000.5,N
1638846775.8,286047001.5,N
1638846795.7,286047002.0,N
1638846815.5,286047003.8,N
1638846835.3,286047001.4,N
1638846855.2,286047001.4,N
1638846875.0,286047004.3,N
1638846875.9,286047004.3,N
1638846895.7,286047001.6,N
1638846915.6,286047004.1,N
1638846935.4,286047001.6,N
1638846955.3,286047001.6,N
1638846975.1,286047002.1,N
1638846995.8,286047001.4,N
1638847015.7,286047004.4,N
1638847035.5,286047003.6,N
1638847055.4,286047003.4,N
1638847075.2,286047001.6,N
1638847095.0,286047001.6,N
1638847095.9,286047001.6,N
1638847115.8,286047000.6,N
1638847135.6,286047002.4,N
1638847155.4,286047001.6,N
1638847175.3,286047001.3,N
1638847195.1,286047002.0,N
1638847215.9,286047001.5,N
1638847235.7,286047002.6,N
1638847255.5,286047001.9,N
1638847275.4,286047001.6,N
1638847295.2,286047002.1,N
1638847315.0,286047001.8,N
1638847316.0,286047001.8,N
1638847335.8,286047002.6,N
1638847355.6,286047002.7,N
1638847375.5,286047000.3,N
1638847395.3,286047002.6,N
1638847415.1,286047000.3,N
1638847435.9,286047001.0,N
1638847455.7,286047001.0,N
1638847475.6,286047000.8,N
1638847495.4,286047002.5,N
1638847515.2,286047002.0,N
1638847535.1,286047002.5,N
1638847536.0,286047002.5,N
1638847555.8,286047002.4,N
1638847575.6,286047001.9,N
1638847595.5,286047002.0,N
1638847615.3,286047001.7,N
1638847635.2,286046999.7,N
1638847655.0,286047002.7,Y
1638847655.9,286047002.7,P
1638847675.7,286047000.9,N
1638847695.6,286047000.7,N
1638847715.4,286046998.6,N
1638847735.3,286046998.5,N
1638847755.1,286046998.5,N
1638847756.0,286046998.5,N
1638847775.8,286046998.7,N
1638847795.7,286046998.7,N
1638847815.5,286047001.1,N
1638847835.4,286046998.4,N
1638847855.2,286046999.4,N
1638847875.0,286047000.5,N
1638847875.9,286047000.5,N
1638847895.8,286047000.4,N
1638847915.6,286047002.8,N
1638847935.5,286047002.0,N
1638847955.3,286047002.0,N
1638847975.1,286047002.5,N
1638847995.9,286046999.8,N
1638848015.7,286046999.8,N
1638848035.6,286047002.8,N
1638848055.4,286047000.3,N
1638848075.2,286047002.0,N
1638848095.1,286047002.2,N
1638848096.0,286047002.2,N
1638848115.8,286047002.0,N
1638848135.6,286047002.2,N
1638848155.5,286047001.8,N
1638848175.3,286047001.3,N
1638848195.2,286047003.9,N
1638848215.9,286047004.0,N
1638848235.7,286047002.4,N
1638848255.6,286047002.6,N
1638848275.4,286047002.6,N
1638848295.3,286047002.6,N
1638848315.1,286047000.4,N
1638848316.0,286047000.4,N
1638848335.8,286046999.3,N
1638848355.7,286046998.2,N
1638848375.5,286046998.1,N
1638848395.4,286046998.7,N
1638848415.2,286046998.3,N
1638848435.0,286046996.5,N
1638848435.9,286046996.5,N
1638848455.8,286046999.0,N
1638848475.6,286046999.3,N
1638848495.4,286046996.9,N
1638848515.3,286046997.0,N
1638848535.1,286046997.3,N
1638848555.9,286046997.1,N
1638848575.7,286046999.0,N
1638848595.5,286046999.4,N
1638848615.4,286046999.3,N
1638848635.2,286047001.0,N
1638848655.0,286046998.1,N
1638848655.9,286046998.1,N
1638848675.8,286046998.5,N
1638848695.6,286047000.8,N
1638848715.5,286047000.7,N
1638848735.3,286047001.1,N
1638848755.1,286047000.7,N
1638848775.9,286046998.6,N
1638848795.7,286047000.4,N
1638848815.5,286047000.4,N
1638848835.4,286046998.3,N
1638848855.2,286046999.1,N
1638848875.1,286046999.0,N
1638848876.0,286046999.0,N
1638848895.8,286047000.7,N
1638848915.7,286047001.0,N
1638848935.5,286047002.7,N
1638848955.3,286047001.0,N
1638848975.2,286046996.6,N
1638848995.9,286046996.6,N
1638849015.7,286046998.3,N
1638849035.6,286046999.6,N
1638849055.4,286046999.2,N
1638849075.3,286046998.3,N
1638849095.1,286046999.1,N
1638849096.0,286046999.1,N
1638849115.8,286046998.2,N
1638849135.7,286046998.7,N
1638849155.5,286046999.9,N
1638849175.3,286046998.1,N
1638849195.2,286047000.9,N
1638849215.0,286047001.0,N
1638849215.9,286047001.0,N
1638849235.8,286046998.1,N
1638849255.6,286047001.2,N
1638849275.4,286047000.8,N
1638849295.3,286047001.2,N
1638849315.1,286046998.3,N
1638849335.8,286046998.9,N
1638849355.7,286047001.2,N
1638849375.5,286047001.1,N
1638849395.4,286046998.1,N
1638849415.2,286047000.9,N
1638849435.0,286046998.1,N
1638849435.9,286046998.1,N
1638849455.8,286047001.0,N
1638849475.6,286047000.0,N
1638849495.4,286047000.1,N
1638849515.3,286047001.0,N
1638849535.1,286047000.0,N
1638849555.9,286047002.4,N
1638849575.7,286047000.6,N
1638849595.5,286047000.7,N
